Location: Unspecified
(0.0000°N, 0.0000°E)
Time: 06:50:32
(UTC+00:00)

Explorer 7 - Pass Details

Date: 20 November 2019
Orbit: 485 x 680 km, 50.3° (Epoch: 11 December)

Event Time Altitude Azimuth Distance (km) Brightness Sun altitude
Rises 09:20:56 0° 296° (WNW) 2,535 9.8 49.5°
Reaches altitude 10° 09:23:36 10° 276° (W) 1,656 9.0 50.1°
Maximum altitude 09:26:11 18° 232° (SW) 1,255 8.7 50.6°
Drops below altitude 10° 09:28:48 10° 188° (S) 1,676 9.6 51.2°
Sets 09:31:32 0° 168° (SSE) 2,581 10.6 51.7°
